NAKANO
         **** Don't distribute anyone except personal use only ****
                (C) Copyright 2009 OAA/ComputingSection
write mail from CFAD0::NAKANO on 2009-01-06 06:55:26(JST).
 


    C/2006 XA1 (LINEAR)

Epoch 2007 Aug. 8.0 TT = JDT 2454320.5  

T 2007 July 21.90113 TT                                 Nakano

q   1.8043765            (2000.0)            P               Q

z  +0.0040503      Peri.  187.41996     -0.81793783     -0.46661430

 +/-0.0000028      Node   318.66228     +0.55054284     -0.46507710

e   0.9926917      Incl.   30.63072     +0.16697395     -0.75231269

From 465 observations 2006 Dec. 9-2008 Mar. 9, mean residual 0".49.

   (1/a)org.= +0.003839, (1/a)fut.= +0.004562 (+/-0.000003), Q= 7.


NAKANO

         **** Don't distribute anyone except personal use only ****

                (C) Copyright 2008 OAA/ComputingSection

write mail from CFAD0::NAKANO on 2008-03-30 06:43:41(JST).

 

    C/2006 XA1 (LINEAR)

Epoch 2007 Aug. 8.0 TT = JDT 2454320.5  

T 2007 July 21.90269 TT                                 Nakano

q   1.8043585            (2000.0)            P               Q

z  +0.0040684      Peri.  187.42078     -0.81794760     -0.46659927

 +/-0.0000060      Node   318.66259     +0.55053206     -0.46508828

e   0.9926591      Incl.   30.63063     +0.16696161     -0.75231510

From 454 observations 2006 Dec. 9-2007 June 10, mean residual 0".48.

   (1/a)org.= +0.003857, (1/a)fut.= +0.004580 (+/-0.000006), Q= 7.



NAKANO

         **** Don't distribute anyone except personal use only ****

                (C) Copyright 2007 OAA/ComputingSection

write mail from CFAD0::NAKANO on 2007-08-13 06:05:09(JST).

 



    C/2006 XA1 (LINEAR)

Epoch 2007 Aug. 8.0 TT = JDT 2454320.5  

T 2007 July 21.90268 TT                                 Nakano

q   1.8043414            (2000.0)            P               Q

z  +0.0040729      Peri.  187.42109     -0.81795428     -0.46659030

 +/-0.0000084      Node   318.66300     +0.55052402     -0.46509559

e   0.9926512      Incl.   30.63052     +0.16695539     -0.75231615

From 385 observations 2006 Dec. 9-2007 Apr. 24, mean residual 0".50.

   (1/a)org.= +0.003862, (1/a)fut.= +0.004584 (+/-0.000008), Q= 6.



NAKANO

         **** Don't distribute anyone except personal use only ****

                (C) Copyright 2007 OAA/ComputingSection

write mail from CFAD0::NAKANO on 2007-05-04 04:01:44(JST).



    C/2006 XA1 (LINEAR)

Epoch 2007 Aug. 8.0 TT = JDT 2454320.5  

T 2007 July 21.89594 TT                                 Nakano

q   1.8042938            (2000.0)            P               Q

z  +0.0040479      Peri.  187.42076     -0.81795967     -0.46658616

 +/-0.0000231      Node   318.66380     +0.55051596     -0.46510084

e   0.9926963      Incl.   30.63032     +0.16695553     -0.75231547

From 220 observations 2006 Dec. 9-2007 Mar. 1, mean residual 0".50.

   (1/a)org.= +0.003837, (1/a)fut.= +0.004559 (+/-0.000023), Q= 5.



NAKANO

         **** Don't distribute anyone except personal use only ****

                (C) Copyright 2007 OAA/ComputingSection

write mail from CFAD0::NAKANO on 2007-03-05 06:22:02(JST).

 



    C/2006 XA1 (LINEAR)

Epoch 2007 Aug. 8.0 TT = JDT 2454320.5  

T 2007 July 21.89594 TT                                 Nakano

q   1.8042938            (2000.0)            P               Q

z  +0.0040479      Peri.  187.42076     -0.81795967     -0.46658616

 +/-0.0000231      Node   318.66380     +0.55051596     -0.46510084

e   0.9926963      Incl.   30.63032     +0.16695553     -0.75231547

From 220 observations 2006 Dec. 9-2007 Mar. 1, mean residual 0".50.

   (1/a)org.= +0.003837, (1/a)fut.= +0.004559 (+/-0.000023), Q= 5.

NAKANO

         **** Don't distribute anyone except personal use only ****

                (C) Copyright 2007 OAA/ComputingSection

write mail from CFAD0::NAKANO on 2007-03-05 06:21:26(JST).

 



    C/2006 XA1 (LINEAR)

T 2007 July 21.89043 TT                                 Nakano

q   1.8042657            (2000.0)            P               Q

z  +0.0039834      Peri.  187.41728     -0.81797372     -0.46659575

 +/-0.0000393      Node   318.66789     +0.55048742     -0.46512235

e   0.9928129      Incl.   30.62829     +0.16698085     -0.75229622

From 167 observations 2006 Dec. 9-2007 Feb. 8.





NAKANO

         **** Don't distribute anyone except personal use only ****

                (C) Copyright 2007 OAA/ComputingSection

write mail from CFAD0::NAKANO on 2007-02-11 07:48:38(JST).

 





    C/2006 XA1 (LINEAR)

T 2007 July 20.97911 TT                                 Nakano

q   1.8012426            (2000.0)            P               Q

                   Peri.  187.38967     -0.81714581     -0.46770664

                   Node   318.60805     +0.55150569     -0.46432504

e   1.0            Incl.   30.63530     +0.16767292     -0.75209890

From 66 observations 2006 Dec. 9-2007 Jan. 10.



NAKANO

         **** Don't distribute anyone except personal use only ****

                (C) Copyright 2007 OAA/ComputingSection

write mail from CFAD0::NAKANO on 2007-01-11 23:59:04(JST).

 



◎C/2006 XA1の軌道と予報位置です

  LINEARサーベイから2006年12月9日にカシオペア座とペルセウス座の境界近くを

撮影したフレーム上に発見された17等級の小惑星状天体が報告され,この天体には

2006 XA1の仮符号が与えられました.2007年1月8日になって,同サーベイから,

この小惑星の再観測が報告された結果,この天体は,放物線に近い軌道を動いてい

ることが判明し,天体の追跡観測が依頼されました.1月9日と10日に多くの観測

者によって天体が追跡され,その結果,この小惑星には,10"〜30"近いコマと西北

に約10"の尾が観測され,この天体は,彗星であることが判明しました.

 美星スペースガードセンターでも,10月9日夜にこの天体の追跡観測が行なわれ

ました.しかし,天体が拡散しているという報告はありませんでした.1月10日の

上尾の門田健一氏の観測によると,天体のCCD全光度は15.9等でした.



    C/2006 XA1 (LINEAR)

T 2007 July 20.97911 TT                                 Nakano

q   1.8012426            (2000.0)            P               Q

                   Peri.  187.38967     -0.81714581     -0.46770664

                   Node   318.60805     +0.55150569     -0.46432504

e   1.0            Incl.   30.63530     +0.16767292     -0.75209890

From 66 observations 2006 Dec. 9-2007 Jan. 10.

 

Date/        TT  R.A.(2000) Decl.     Delta   r     Daily motion  Mag.  Moon Age

              h    h  m       。  ,                      ,  / PA 。  m1      。

2007 Jan. 10 12  02 27.04  +53 19.1   2.367  2.941    11.6 / 167  15.6  126  .60

          11 12  02 27.33  +53 07.8   2.367  2.933    11.6 / 165  15.5  135  .50

          12 12  02 27.66  +52 56.6   2.368  2.924    11.7 / 163  15.5  142  .41

          13 12  02 28.03  +52 45.3   2.368  2.915    11.8 / 162  15.5  147  .32

          14 12  02 28.43  +52 34.1   2.369  2.906    11.9 / 160  15.5  149  .23

          15 12  02 28.88  +52 22.9   2.369  2.897    12.0 / 158  15.5  146  .15

          16 12  02 29.37  +52 11.8   2.370  2.889    12.1 / 156  15.5  140  .09

          17 12  02 29.89  +52 00.7   2.371  2.880    12.2 / 155  15.5  131  .04

          18 12  02 30.45  +51 49.6   2.372  2.871    12.3 / 153  15.5  120  .01

          19 12  02 31.05  +51 38.6   2.373  2.862    12.5 / 152  15.4  109  .00

          20 12  02 31.69  +51 27.6   2.375  2.854    12.6 / 150  15.4   96  .02

          21 12  02 32.36  +51 16.7   2.376  2.845    12.7 / 148  15.4   84  .07

          22 12  02 33.07  +51 05.9   2.377  2.836    12.9 / 147  15.4   71  .14

          23 12  02 33.81  +50 55.1   2.379  2.827    13.0 / 145  15.4   59  .23

          24 12  02 34.59  +50 44.4   2.381  2.819    13.2 / 144  15.4   48  .34

          25 12  02 35.41  +50 33.8   2.382  2.810    13.3 / 142  15.4   38  .45

          26 12  02 36.26  +50 23.2   2.384  2.801    13.5 / 141  15.4   31  .56

          27 12  02 37.14  +50 12.8   2.386  2.793    13.6 / 140  15.3   28  .67

          28 12  02 38.06  +50 02.4   2.388  2.784    13.8 / 138  15.3   32  .77

          29 12  02 39.01  +49 52.0   2.390  2.775    14.0 / 137  15.3   39  .85

          30 12  02 39.99  +49 41.8   2.392  2.767    14.2 / 136  15.3   49  .92

          31 12  02 41.00  +49 31.6   2.394  2.758    14.3 / 135  15.3   59  .97

     Feb.  1 12  02 42.05  +49 21.6   2.396  2.749    14.5 / 133  15.3   70  .99

           2 12  02 43.13  +49 11.6   2.398  2.741    14.7 / 132  15.3   82 1.00

           3 12  02 44.24  +49 01.7   2.401  2.732    14.9 / 131  15.3   93  .98

           4 12  02 45.38  +48 51.8   2.403  2.724    15.1 / 130  15.3  103  .95

           5 12  02 46.54  +48 42.1   2.405  2.715    15.3 / 129  15.2  114  .90

           6 12  02 47.74  +48 32.4   2.408  2.706    15.5 / 128  15.2  124  .84

           7 12  02 48.97  +48 22.9   2.410  2.698    15.7 / 127  15.2  134  .76

           8 12  02 50.23  +48 13.4   2.413  2.689    15.9 / 126  15.2  143  .68

           9 12  02 51.52  +48 04.0   2.416  2.681    16.2 / 125  15.2  150  .59

          10 12  02 52.83  +47 54.7   2.418  2.672    16.4 / 124  15.2  155  .49

NAKANO

         **** Don't distribute anyone except personal use only ****

                (C) Copyright 2007 OAA/ComputingSection

write mail from CFAD0::NAKANO on 2007-01-11 05:24:21(JST).

 



戻ります。